Location: Neuvy Saint Sepulchre
(46.5953°N, 1.8122°E)
Time: 16:41:34
(UTC+01:00)

ISS - Pass Details

Date: 30 November 2019
Orbit: 411 x 421 km, 51.6° (Epoch: 11 December)

Event Time Altitude Azimuth Distance (km) Brightness Sun altitude
Rises 19:59:46 0° 291° (WNW) 2,362 1.1 -28.8°
Reaches altitude 10° 20:01:58 10° 300° (WNW) 1,500 -0.3 -29.2°
Enters shadow 20:02:24 13° 303° (WNW) 1,336 -0.6 -29.3°
